RH
7 7 7 8 9 9 10 12 13 13 10 15 18 20 23 21 24 40 82 100 84 92 94 81 74 67 73 73 84 76 71 83 100 87 94 100 100 100 98 94 82 67 48 48 40 36 32 27 27
7 7 7 7 8 9 10 11 8 8 12 15 20 47 31 30 25 25 48 100 96 88 98 99 78 96 100 99 95 75 65 82 96 94 100 100 100 96 88 68 61 60 44 51 32 39 42 38 39
8 7 7 7 8 9 10 8 9 9 17 20 18 32 51 85 84 42 38 53 100 100 100 100 100 100 99 96 99 93 88 98 100 98 100 99 97 73 71 57 64 53 60 38 67 72 74 59 90
8 8 7 8 8 9 10 8 10 18 44 48 80 47 99 100 100 100 41 37 97 100 100 100 100 100 100 99 82 100 100 100 100 100 97 80 94 68 75 66 73 96 46 99 84 78 94 100 100
9 9 8 8 8 8 8 9 10 23 55 68 69 60 99 100 100 99 32 44 57 94 100 100 100 100 100 100 86 100 100 100 91 91 100 90 87 100 66 77 92 94 100 77 80 96 100 92 93
10 10 10 10 10 10 7 8 10 60 34 34 22 34 18 31 30 26 37 34 57 86 99 100 72 74 99 100 100 100 100 100 100 90 94 86 81 94 88 89 100 88 100 98 97 100 94 98 82
12 11 11 10 9 9 9 9 10 66 86 41 25 14 14 16 22 30 26 90 70 60 53 75 94 100 100 100 95 87 95 88 81 80 90 95 100 98 100 100 74 100 100 100 98 99 90 84 71
12 12 11 13 13 10 8 11 12 33 35 35 19 48 27 36 27 24 29 56 58 86 100 100 100 100 100 100 85 88 100 100 100 100 100 100 100 100 99 100 100 100 100 100 95 87 80 65 62
13 18 20 17 12 11 14 19 100 98 100 98 100 73 60 79 96 84 35 46 100 100 100 100 100 100 100 98 98 99 100 95 99 100 99 100 100 98 91 100 100 100 99 86 79 73 64 57 44
17 17 16 17 18 12 28 91 100 100 100 100 98 98 96 100 89 96 63 46 93 100 100 100 100 100 100 100 100 90 89 100 100 100 100 100 100 100 98 100 100 98 84 77 71 63 58 49 34
29 31 27 21 16 29 96 100 100 99 100 100 97 98 100 94 100 100 85 99 100 100 100 100 100 100 100 100 100 100 100 100 100 100 100 94 98 100 100 100 97 95 98 84 80 63 55 38 27
64 68 48 40 35 46 100 100 100 73 98 100 100 88 78 51 67 88 95 78 95 100 100 100 100 100 100 100 100 100 100 100 100 100 100 100 100 100 100 99 95 97 86 82 68 54 43 34 23
100 90 92 63 40 93 100 100 100 99 60 62 79 75 51 55 52 48 77 100 84 100 100 91 100 99 100 100 100 100 100 100 100 100 100 100 100 100 100 91 86 77 68 62 56 48 41 36 32
100 100 74 94 56 76 100 100 98 69 83 58 61 74 100 86 74 100 99 65 68 69 75 76 78 95 100 100 100 100 100 100 100 100 100 100 99 84 74 74 60 46 39 41 46 44 43 57 83
99 96 76 100 100 99 89 72 74 50 63 81 91 100 99 99 91 83 88 65 94 93 100 100 99 100 100 100 95 100 100 100 100 100 100 94 61 68 79 54 48 52 54 34 38 56 100 100 100
100 100 93 100 100 100 90 79 87 83 96 100 95 100 100 100 100 100 100 100 100 100 100 99 100 100 100 100 100 100 100 100 87 78 72 70 69 91 80 64 65 74 75 66 67 64 77 95 82
100 98 100 97 100 100 93 95 99 100 91 90 100 100 100 89 100 100 100 100 100 100 100 100 100 100 100 84 72 97 99 80 72 77 81 58 34 31 38 66 97 96 97 100 100 88 92 99 92
100 90 93 100 100 100 100 100 100 100 100 100 100 100 96 92 100 95 100 100 100 100 69 62 63 90 94 100 100 92 88 71 67 57 39 25 21 34 82 79 83 95 96 96 100 100 94 52 43
96 95 87 88 100 100 100 100 100 100 100 100 100 100 100 98 89 81 73 58 65 84 100 100 100 100 97 85 68 72 75 47 31 26 30 38 36 34 36 36 37 39 37 35 35 36 36 38 36
89 80 94 100 98 100 100 100 100 100 100 100 94 68 81 91 77 80 100 100 100 100 100 100 93 85 84 72 66 54 27 26 26 26 25 24 26 26 26 27 26 25 27 30 30 31 31 32 41
84 100 100 100 100 100 100 100 100 100 92 67 90 100 100 100 100 100 100 100 98 93 83 74 63 69 70 59 26 27 26 25 26 27 30 28 33 38 40 40 40 34 30 29 30 33 40 47 52
92 93 58 100 100 100 100 100 100 100 100 100 100 100 100 100 99 88 98 98 76 56 55 79 58 35 25 26 26 25 25 26 26 27 30 35 42 45 47 49 50 52 52 51 49 48 50 52 56
70 57 56 98 98 79 88 84 100 100 91 80 88 77 83 90 91 89 94 84 87 63 43 26 26 29 26 24 26 27 28 34 40 47 52 58 64 69 73 73 68 66 69 70 67 64 67 63 60
68 75 100 93 100 100 100 88 100 100 100 94 98 99 95 82 76 70 55 42 28 27 30 29 27 26 28 28 32 38 44 46 47 50 53 57 60 64 67 63 60 63 65 58 54 50 53 48 49
87 95 100 100 96 92 100 100 82 100 100 100 90 81 63 46 37 27 23 29 33 30 27 28 29 32 35 38 48 46 45 46 44 43 46 50 55 64 66 70 64 60 58 53 47 47 51 57 62
100 100 100 100 99 100 100 100 86 89 77 63 49 36 26 23 25 35 34 33 30 30 32 34 34 35 40 44 45 41 48 50 47 46 52 57 61 64 70 72 61 61 60 59 52 53 57 62 65
100 99 100 99 93 83 79 71 58 43 37 32 26 26 32 36 34 32 34 33 36 37 41 38 38 40 43 44 44 50 48 48 51 54 48 48 59 66 72 70 66 62 63 61 56 60 65 67 67
95 98 79 64 53 49 49 40 36 26 25 32 37 38 36 34 36 40 40 39 38 46 46 43 42 46 48 47 44 45 45 49 59 52 49 57 66 71 80 80 71 68 69 64 64 67 72 68 63
69 58 54 53 52 47 38 29 28 30 50 45 42 40 42 43 48 53 50 48 47 51 56 54 52 55 55 45 47 50 56 54 59 54 52 64 72 75 78 74 72 76 69 65 68 70 68 72 56
53 58 56 38 28 28 28 29 35 50 46 42 43 49 47 49 58 66 66 64 63 58 53 54 62 62 58 67 66 69 75 82 74 57 62 70 76 73 72 74 76 66 68 70 73 78 78 52 40
Wind_Speed
87 88 95 97 96 96 94 92 95 92 86 84 81 79 75 73 75 79 79 75 79 81 81 81 78 80 80 82 81 83 84 81 80 83 81 79 73 76 82 84 85 87 93 88 90 93 90 89 87
77 81 85 90 92 90 90 97 97 87 88 82 77 66 67 72 81 76 82 85 78 76 74 77 79 80 82 79 80 84 84 82 80 80 77 76 82 85 82 89 87 87 91 90 89 87 89 91 87
71 73 72 77 81 84 89 94 92 85 78 75 74 68 71 71 72 78 76 72 73 68 70 73 76 78 79 75 72 72 74 72 70 74 76 81 82 89 86 91 88 88 90 93 86 83 82 83 70
64 64 67 67 73 76 83 88 78 67 67 77 68 71 71 70 64 63 71 72 68 66 73 74 78 75 63 67 67 68 73 71 77 79 79 85 80 87 88 87 85 80 92 79 78 83 78 67 64
60 57 57 60 64 70 78 75 67 66 79 78 65 61 78 77 70 71 70 66 63 59 62 65 67 60 56 61 67 73 78 75 80 80 74 76 81 73 85 81 77 82 78 80 81 73 65 65 72
58 56 54 55 59 65 69 68 45 46 65 79 80 78 73 73 72 73 65 67 61 48 53 66 68 71 67 67 76 75 74 75 72 74 67 69 73 72 73 78 78 80 74 76 71 69 69 70 69
54 51 48 53 56 56 60 50 48 61 52 61 66 74 70 64 62 67 58 54 61 65 70 65 46 52 56 67 67 68 63 68 66 67 66 71 71 74 79 76 81 75 75 70 70 72 70 64 63
47 47 47 50 50 54 39 28 34 45 41 59 60 60 60 56 50 61 60 56 62 59 59 57 59 65 69 71 66 58 63 56 66 68 65 71 73 75 78 76 78 83 74 71 75 70 62 65 62
44 45 46 45 44 42 29 28 26 38 43 52 57 58 52 48 44 51 60 55 45 52 60 59 60 68 55 61 59 57 59 67 71 68 75 76 78 84 78 80 80 75 72 80 75 65 63 59 66
39 42 45 45 42 32 24 25 42 43 25 36 42 42 36 44 46 34 50 52 55 65 67 69 60 58 65 64 62 66 69 71 74 73 73 79 83 76 81 79 74 79 79 74 68 66 65 66 66
35 38 43 40 36 30 39 36 35 39 52 42 44 55 53 51 51 36 42 46 47 60 75 70 71 75 76 69 66 69 75 77 72 73 78 77 78 79 82 75 74 66 63 64 67 71 71 59 61
27 32 34 27 33 35 47 46 50 48 60 61 64 67 60 57 51 35 44 44 63 60 55 58 60 66 70 75 79 77 74 74 72 68 72 75 76 76 75 74 67 64 66 68 72 71 71 68 62
25 25 24 25 27 39 52 49 59 60 54 51 49 54 53 41 32 35 41 57 62 70 72 70 75 76 72 74 75 70 74 71 68 68 70 73 76 74 72 74 76 75 79 78 78 77 71 68 64
26 23 23 22 27 35 48 51 52 49 46 39 36 28 23 29 31 30 41 56 57 60 62 63 65 68 78 81 80 81 74 76 78 77 79 78 78 81 82 83 85 86 87 82 79 75 69 69 68
26 26 23 25 26 29 38 45 46 42 32 27 27 18 16 21 29 40 42 41 41 45 45 46 51 53 61 65 69 72 77 71 68 75 78 79 81 85 86 88 89 85 82 79 76 68 70 74 73
22 23 21 26 30 30 30 28 29 27 26 24 24 16 18 20 23 28 28 38 39 42 47 51 53 52 56 60 62 61 62 70 68 74 76 78 84 84 82 79 79 79 77 77 77 77 78 78 82
30 29 24 26 28 28 28 22 26 27 19 15 17 18 19 21 29 31 32 35 35 41 45 47 49 58 58 60 59 63 69 72 72 76 75 74 71 71 71 74 78 77 77 78 82 87 90 89 91
28 25 21 22 22 22 19 16 20 23 17 17 22 24 24 31 33 33 37 40 44 46 39 41 43 55 58 59 63 66 70 72 70 72 70 67 67 64 66 72 76 79 80 81 85 89 93 88 84
23 20 18 19 23 24 19 13 18 19 16 25 30 30 32 35 36 34 29 28 35 40 53 60 59 55 58 61 65 66 64 62 61 60 58 59 62 65 69 71 74 78 81 80 82 81 81 82 79
22 16 13 18 20 21 21 21 23 24 27 30 28 30 24 25 29 34 37 42 45 52 58 55 57 58 60 65 66 61 59 55 53 56 59 61 64 68 69 73 74 74 77 77 76 76 74 71 66
20 18 21 23 21 23 24 23 24 23 21 25 25 31 38 38 42 44 48 49 48 48 52 56 61 64 61 56 54 48 49 51 52 55 59 62 63 63 64 66 67 69 70 71 71 69 67 66 70
17 20 17 26 26 25 24 26 29 31 34 40 41 44 40 43 48 46 49 51 53 55 60 56 52 51 46 43 45 46 47 50 53 56 57 58 61 62 64 66 68 69 69 69 70 71 72 72 74
22 22 16 26 28 28 30 31 29 30 35 37 40 43 47 46 49 52 48 48 46 47 46 43 40 39 40 41 43 46 47 48 50 52 53 56 58 60 64 67 68 68 70 72 75 77 80 80 81
18 14 17 24 30 33 36 29 36 37 33 36 37 40 40 39 39 39 40 41 42 37 35 34 34 35 37 40 41 42 46 47 52 57 61 64 67 68 71 68 66 67 69 72 74 75 80 84 84
23 21 24 28 30 31 33 34 29 34 32 35 36 36 35 35 37 39 36 31 30 32 31 31 33 34 38 40 42 45 51 52 56 59 66 69 73 75 77 75 72 72 75 76 77 78 79 87 92
30 28 30 29 29 28 34 35 31 33 33 32 35 35 36 35 31 27 26 28 28 28 30 32 35 40 44 43 48 53 57 60 64 68 72 75 78 82 82 80 77 78 80 80 79 81 87 93 101
28 30 31 32 33 29 31 27 29 29 32 33 32 29 26 24 25 25 26 26 27 30 35 38 39 43 48 52 55 61 63 66 71 74 77 83 85 87 88 84 81 82 84 85 87 90 97 101 108
35 32 32 31 31 29 27 28 29 31 29 26 24 24 25 25 25 25 27 30 29 36 41 45 46 49 53 57 60 63 67 71 75 79 84 87 88 93 92 89 87 88 90 91 94 99 104 107 112
29 29 28 27 28 28 29 28 27 23 23 24 24 25 25 25 28 29 31 35 39 40 46 50 52 55 60 63 65 70 75 79 82 85 88 91 93 97 94 90 91 93 94 96 102 105 108 111 109
30 30 28 28 28 27 28 25 26 23 24 25 25 27 27 29 32 35 38 41 46 48 50 55 58 63 66 71 74 79 82 86 88 91 93 95 99 97 92 92 94 96 101 103 107 112 113 110 110
Wind_Direction
245 245 246 245 245 245 247 249 250 251 251 252 254 254 252 254 255 251 253 258 256 260 261 262 266 269 270 271 273 276 279 280 281 284 286 284 286 287 290 295 298 296 297 300 302 302 305 306 306
247 246 246 247 248 247 246 246 249 251 253 254 256 257 254 255 253 255 252 251 256 261 263 265 266 268 271 272 275 276 278 280 281 283 284 285 289 293 293 298 299 296 297 302 302 303 308 307 308
251 248 248 247 249 249 246 248 251 253 258 260 259 255 257 254 254 253 253 254 257 261 263 268 270 269 271 274 275 276 276 276 280 282 285 289 292 294 296 296 296 297 298 302 301 302 300 303 299
248 248 248 247 247 249 248 245 249 255 258 253 253 249 245 250 254 256 256 254 252 259 261 265 267 272 272 272 273 274 275 276 285 288 287 292 295 292 296 295 297 297 301 300 299 298 299 295 293
245 246 244 245 245 246 249 249 246 240 245 248 249 236 240 247 253 260 258 259 258 255 259 258 265 269 268 271 274 274 279 282 285 287 290 288 292 293 293 292 295 293 296 294 298 294 291 298 301
242 243 242 243 242 243 246 250 247 257 254 256 259 258 255 252 255 256 257 259 259 253 254 259 266 272 266 276 275 278 281 284 283 286 287 290 290 294 291 296 286 292 293 294 293 291 296 299 304
243 242 244 246 248 249 248 246 248 242 248 249 252 257 257 258 253 253 253 254 256 260 264 267 258 256 269 275 282 280 279 284 287 292 291 293 292 290 289 288 287 289 291 291 288 299 298 302 303
245 245 243 242 244 246 255 254 236 239 243 239 243 246 252 256 257 254 250 248 254 259 252 253 256 261 270 272 266 279 286 285 282 285 292 284 290 287 288 289 290 285 291 292 294 296 299 304 303
241 242 240 241 243 247 244 215 235 247 260 246 243 248 246 249 250 250 248 243 241 241 246 251 255 265 259 273 277 277 271 275 279 279 288 284 279 285 283 288 287 291 295 297 297 300 301 300 300
239 240 240 240 237 236 217 191 215 239 246 237 243 247 235 233 245 244 244 242 245 244 246 248 250 251 262 268 261 267 269 280 285 283 281 282 281 283 282 286 295 295 297 299 298 300 300 302 300
233 237 239 239 236 222 182 185 210 206 195 222 190 236 233 234 238 244 245 219 227 235 241 246 250 253 259 264 269 272 274 279 279 279 274 278 278 279 285 292 294 298 298 296 296 299 295 296 296
228 234 241 237 228 207 194 203 211 212 212 228 240 248 248 249 238 230 250 243 238 234 240 244 250 252 257 258 267 274 279 282 276 272 273 278 281 285 289 292 292 288 287 293 294 296 297 298 298
215 227 227 227 221 194 200 212 221 223 229 234 245 249 251 254 255 247 226 233 243 243 246 253 255 261 261 264 269 270 273 272 275 280 278 282 283 285 289 291 292 293 294 294 295 295 298 299 302
214 217 219 212 201 205 204 215 221 227 243 244 242 239 242 253 239 226 236 242 249 251 253 256 258 257 258 263 267 269 269 271 274 281 283 280 289 292 292 293 295 295 295 291 292 296 298 304 303
206 222 210 207 197 214 219 220 223 232 231 226 217 205 223 232 229 228 246 246 248 251 255 261 261 261 261 264 266 268 268 278 276 278 283 288 293 294 293 293 294 294 293 296 295 299 289 293 292
205 221 215 211 209 224 229 228 228 222 210 216 223 215 217 236 237 244 251 240 241 251 254 254 258 265 268 268 270 270 275 282 283 287 287 288 289 291 292 290 289 290 290 293 294 293 291 288 292
210 218 213 210 211 219 227 229 220 225 237 228 230 236 249 247 233 238 240 242 249 257 256 260 264 264 271 274 275 276 281 287 288 290 291 292 291 290 290 289 288 289 289 288 288 290 291 291 290
217 223 211 213 214 217 211 205 218 225 223 253 249 260 257 244 243 246 252 252 256 260 263 264 268 268 272 278 279 284 286 289 288 289 289 286 287 285 286 286 286 286 282 284 283 285 289 290 289
219 222 209 203 193 194 198 221 217 216 212 273 237 239 252 252 252 249 258 261 258 267 269 266 264 273 285 286 289 292 293 290 288 287 288 287 288 288 289 288 288 289 289 287 286 287 288 291 292
219 203 200 184 184 199 210 229 228 227 219 231 242 250 257 258 257 264 266 266 262 263 268 280 286 288 287 287 287 286 287 285 285 286 288 291 295 296 295 295 294 293 294 294 293 293 292 292 292
197 205 196 193 210 209 208 210 219 222 235 241 252 264 262 256 257 258 267 271 279 282 284 283 283 282 285 283 285 285 287 290 295 299 301 300 301 303 303 302 302 299 297 296 296 296 295 294 294
199 227 195 208 207 212 220 233 239 242 238 257 258 262 268 269 266 273 281 276 275 274 276 279 281 283 282 282 285 292 296 300 302 303 304 307 309 310 310 309 308 306 304 302 301 297 295 295 292
222 226 230 213 219 223 226 223 237 256 257 260 260 261 267 268 270 273 272 276 276 278 278 279 278 282 288 293 300 304 305 308 312 314 314 316 314 313 313 311 308 307 306 303 299 296 294 292 291
223 224 230 234 233 239 243 244 253 258 265 270 261 267 268 272 275 277 277 276 277 274 272 279 289 298 304 306 306 306 311 314 315 315 315 315 317 316 316 308 303 302 301 298 296 293 292 291 291
236 229 228 233 237 242 248 252 248 263 260 254 271 271 272 273 273 273 272 267 267 276 284 294 300 302 306 309 309 310 312 312 312 314 316 316 316 316 316 313 307 304 304 302 298 297 298 298 297
231 236 238 243 252 250 252 256 258 255 262 260 265 266 267 267 262 258 262 271 278 287 295 299 298 299 304 306 307 309 310 312 313 314 317 317 317 318 318 314 309 308 308 307 304 303 303 301 301
239 245 252 252 255 247 249 251 257 258 258 259 260 259 253 254 259 263 272 276 288 293 292 296 297 299 301 304 306 309 311 312 312 314 315 317 317 317 316 314 311 309 309 309 308 306 306 306 305
251 249 250 246 243 243 246 252 255 255 256 251 249 254 259 265 271 279 280 283 286 290 292 294 298 300 301 303 306 307 309 310 312 313 315 315 315 316 316 314 312 311 311 310 310 309 308 310 307
245 245 243 245 247 250 253 254 246 245 245 250 258 265 272 278 285 285 284 284 287 289 294 297 301 303 304 305 307 309 310 310 311 313 314 314 314 315 314 313 313 313 312 311 310 310 310 310 309
243 246 251 252 255 255 251 239 240 240 248 256 266 272 274 284 288 290 291 290 291 292 293 295 300 303 305 307 309 309 309 309 311 313 314 314 314 313 313 314 314 314 312 312 313 313 313 312 311